Regional Weather Roundup
Issued by NWS

Home | Current Version | Previous Version | Graphics & Text | Print | Product List | Glossary Off
Versions: 1 2 3 4 5 6 7 8 9 10 11 12 13 14 15 16 17 18 19 20 21 22 23 24 25 26 27 28 29 30 31 32 33 34 35 36 37 38 39 40 41 42 43 44 45 46 47 48 49 50

000
ASUS45 KSLC 272210
RWRUT

UTAH REGIONAL WEATHER ROUNDUP
NATIONAL WEATHER SERVICE SALT LAKE CITY UT
400 PM MDT WED MAY 27 2015

UTZ001>011-023>025-272300-

NORTHERN UTAH

CITY           SKY/WX    TMP DP  RH WIND       PRES   REMARKS
BRIGHAM CITY   MOSUNNY   66  46  49 SW6       30.04F
HILL AFB       PTSUNNY   65  43  46 W6        30.05F
LOGAN          SUNNY     64  47  53 VRB5      30.03F
OGDEN          CLOUDY    65  45  48 VRB7      30.04F
PROVO AIRPORT  PTSUNNY   68  45  42 S6        30.05F
SALT LAKE CITY PTSUNNY   69  49  48 N14       30.01F
VERNAL         LGT RAIN  63  46  54 W8        30.09R
WENDOVER       CLOUDY    64  52  63 S15       29.99F
HEBER CITY     PTSUNNY   68  41  37 SW14      30.05F
WEST JORDAN    CLOUDY    64  52  63 NW5       30.05S

$$

UTZ012>022-026-027-272300-

SOUTHERN/CENTRAL UTAH

CITY           SKY/WX    TMP DP  RH WIND       PRES   REMARKS
BLANDING       PTSUNNY   74  35  24 CALM      30.16F
BRYCE CANYON   PTSUNNY   67  29  24 SW16G25   30.17F
CEDAR CITY     SUNNY     75  31  19 SW15      30.04F
DELTA          CLOUDY    63  43  48 NW23G37   30.08R
HANKSVILLE     PTSUNNY   75  41  29 E5        30.01F
MILFORD        PTSUNNY   66  42  41 N9        30.03S
MOAB/CYNLANDS  MOSUNNY   79  36  21 W9        29.97F
PRICE          LGT RAIN  57  46  66 NW17G33   30.09R
ST GEORGE      MOCLDY    88  34  14 S9        29.91F
KANAB          MOSUNNY   79  28  15 S12G20    30.06F

$$

REGIONAL REPORTS     COLORADO/ARIZONA

CITY           SKY/WX    TMP DP  RH WIND       PRES   REMARKS
CRAIG, CO      PTSUNNY   63  43  48 NW9       30.12S
GRAND JUNCTION PTSUNNY   73  43  33 VRB5      30.02F
RIFLE          MOSUNNY   71  44  37 SE20      30.06S
MONTROSE       CLOUDY    72  41  32 NW21G26   30.09R
CORTEZ         SUNNY     76  37  24 SW10G20   30.10F
PAGE, AZ       MOSUNNY   83  34  17 NE10      29.98F
GRAND CANYON   SUNNY     73  20  13 SW14G22   30.15F
KINGMAN        MOSUNNY   86  26  11 SW20G26   29.97F
FLAGSTAFF      CLOUDY    65  26  23 SW13      30.19F

$$

REGIONAL REPORTS    NEVADA/IDAHO/WYOMING

CITY           SKY/WX    TMP DP  RH WIND       PRES   REMARKS
LAS VEGAS, NV  MOSUNNY   91  32  12 S10G18    29.83F
ELY            LGT RAIN  53  46  77 S8        30.16R
ELKO           PTSUNNY   71  41  33 N7        30.02S
POCATELLO, ID  PTSUNNY   69  44  40 S12G22    29.99F
BURLEY         CLOUDY    66  42  41 W6        29.98S
EVANSTON, WY   MOSUNNY   59  40  49 W16G24    30.12F
ROCK SPRINGS   TSTM      50  42  74 W15       30.13R
KEMMERER       PTSUNNY   59  37  44 W16G22    30.13S

$$


USA.gov is the U.S. government's official web portal to all federal, state and local government web resources and services.